Volver al catálogo

DELTA 1 DEB

ActivoPO
NORAD 37651·DEBRIS·🇺🇸 United States

Lanzado Mar 5, 1978 desde Vandenberg Space Force Base

Loading…

Próximos Pases (próximas 24 horas)

TLE

ActualizadoSource: Space-Track

Época: Sep 13, 2026, 01:25 UTC

1 37651U 78026JN  26256.05915500  .00001271  00000-0  47889-3 0  9991
2 37651  99.0988  16.0313 0035452 180.8677 179.2450 14.32974642216208

Sigue DELTA 1 DEB en tiempo real con AllMySat

Download on the App Store